Powrót do katalogu

DELTA 1 DEB

AktywnyUNKNOWN
NORAD 9702·DEBRIS·🇺🇸 United States

Wystrzelony Nov 6, 1973 z Vandenberg Space Force Base

Loading…

Następne Przeloty (najbliższe 24 godziny)

TLE

ŚwieżeSource: Space-Track

Epoka: Sep 14, 2026, 07:01 UTC

1 09702U 73086GA  26257.29236546  .00000397  00000-0  60244-2 0  9998
2 09702 103.0668 180.1742 0694543  95.3476  49.9517 11.43024341200765

Śledź DELTA 1 DEB w czasie rzeczywistym z AllMySat

Download on the App Store